CKS379 KYIP-KJFK

Flight info

Callsign CKS379
Flight time 1h 11m
Altitude 35000
Route PAVYL3 MRDOC HOXIE Q476 WLKES PUCKY1
Aircraft B77L/H-SDE1E2E3FGHIJ2J3J4J5M1RWXY/LB1D1

Departure

Time 2026-05-06 01:20
Airport Willow Run Airport (KYIP)

Arrival

Time 2026-05-06 02:32
Airport John F. Kennedy International Airport (KJFK)
Time Latitude Longitude Altitude Speed Heading
2026-05-06 00:52 42.22733 -83.53655 730 ft 0 kts 71°
2026-05-06 01:05 42.22735 -83.53636 730 ft 10 kts 84°
2026-05-06 01:06 42.22681 -83.53534 731 ft 15 kts 139°
2026-05-06 01:06 42.22602 -83.53443 727 ft 15 kts 139°
2026-05-06 01:06 42.22557 -83.53319 727 ft 15 kts 89°
2026-05-06 01:06 42.22637 -83.53249 727 ft 16 kts
2026-05-06 01:07 42.22751 -83.53254 728 ft 18 kts 357°
2026-05-06 01:07 42.22886 -83.53260 728 ft 21 kts
2026-05-06 01:07 42.23043 -83.53253 727 ft 24 kts 18°
2026-05-06 01:07 42.23099 -83.53049 727 ft 26 kts 88°
2026-05-06 01:08 42.23108 -83.52779 723 ft 31 kts 88°
2026-05-06 01:08 42.23112 -83.52473 723 ft 34 kts 91°
2026-05-06 01:08 42.23118 -83.52136 723 ft 37 kts 89°
2026-05-06 01:08 42.23123 -83.51785 719 ft 35 kts 89°
2026-05-06 01:09 42.23160 -83.51585 721 ft 21 kts 27°
2026-05-06 01:09 42.23306 -83.51514 719 ft 22 kts 19°
2026-05-06 01:09 42.23458 -83.51514 719 ft 22 kts 359°
2026-05-06 01:09 42.23614 -83.51519 720 ft 22 kts 358°
2026-05-06 01:10 42.23771 -83.51526 720 ft 23 kts 358°
2026-05-06 01:10 42.23927 -83.51534 722 ft 23 kts 358°
2026-05-06 01:10 42.24084 -83.51543 723 ft 22 kts 359°
2026-05-06 01:10 42.24157 -83.51544 723 ft 0 kts 359°
2026-05-06 01:12 42.24158 -83.51544 723 ft 0 kts 359°
2026-05-06 01:12 42.24160 -83.51544 723 ft 0 kts 359°
2026-05-06 01:12 42.24211 -83.51548 726 ft 11 kts 353°
2026-05-06 01:13 42.24223 -83.51552 725 ft 9 kts 347°
2026-05-06 01:13 42.24339 -83.51607 726 ft 20 kts 337°
2026-05-06 01:13 42.24364 -83.51621 727 ft 0 kts 337°
2026-05-06 01:13 42.24383 -83.51608 727 ft 9 kts 39°
2026-05-06 01:14 42.24251 -83.51555 725 ft 21 kts 163°
2026-05-06 01:14 42.24128 -83.51534 724 ft 8 kts 176°
2026-05-06 01:14 42.24092 -83.51545 721 ft 14 kts 210°
2026-05-06 01:15 42.24062 -83.51704 718 ft 19 kts 269°
2026-05-06 01:15 42.24090 -83.51876 725 ft 19 kts 308°
2026-05-06 01:15 42.24117 -83.51914 724 ft 1 kts 314°
2026-05-06 01:15 42.24155 -83.51950 725 ft 15 kts 343°
2026-05-06 01:16 42.24217 -83.51841 721 ft 22 kts 71°
2026-05-06 01:16 42.24367 -83.51791 724 ft 30 kts 310°
2026-05-06 01:16 42.24421 -83.51895 724 ft 0 kts 303°
2026-05-06 01:19 42.24435 -83.51926 723 ft 14 kts 301°
2026-05-06 01:19 42.24420 -83.52047 722 ft 0 kts 221°
2026-05-06 01:20 42.24418 -83.52050 724 ft 5 kts 220°
2026-05-06 01:20 42.24196 -83.52365 725 ft 94 kts 227°
2026-05-06 01:20 42.23544 -83.53307 730 ft 177 kts 231°
2026-05-06 01:20 42.22692 -83.54486 1732 ft 169 kts 229°
2026-05-06 01:21 42.21825 -83.55640 2781 ft 185 kts 227°
2026-05-06 01:21 42.20765 -83.56872 3114 ft 211 kts 223°
2026-05-06 01:21 42.19597 -83.58178 3686 ft 226 kts 223°
2026-05-06 01:21 42.18366 -83.59572 4412 ft 235 kts 223°
2026-05-06 01:22 42.17106 -83.61005 5269 ft 237 kts 220°
2026-05-06 01:22 42.15609 -83.61903 6138 ft 244 kts 187°
2026-05-06 01:22 42.13939 -83.61382 6981 ft 257 kts 151°
2026-05-06 01:22 42.12729 -83.59561 7770 ft 272 kts 117°
2026-05-06 01:23 42.12357 -83.57031 8496 ft 282 kts 91°
2026-05-06 01:23 42.12422 -83.54342 9114 ft 292 kts 90°
2026-05-06 01:23 42.12490 -83.51584 9895 ft 296 kts 90°
2026-05-06 01:23 42.12562 -83.48801 10664 ft 299 kts 91°
2026-05-06 01:24 42.12638 -83.45974 11370 ft 305 kts 91°
2026-05-06 01:24 42.12714 -83.43131 12067 ft 311 kts 91°
2026-05-06 01:24 42.12792 -83.40156 12768 ft 316 kts 91°
2026-05-06 01:24 42.12867 -83.37215 13467 ft 321 kts 92°
2026-05-06 01:25 42.12941 -83.34188 14129 ft 326 kts 92°
2026-05-06 01:25 42.13014 -83.31120 14769 ft 330 kts 92°
2026-05-06 01:25 42.13088 -83.27974 15410 ft 334 kts 92°
2026-05-06 01:25 42.13159 -83.24865 16024 ft 338 kts 92°
2026-05-06 01:26 42.13230 -83.21678 16663 ft 343 kts 92°
2026-05-06 01:26 42.13301 -83.18447 17305 ft 347 kts 93°
2026-05-06 01:26 42.13372 -83.15176 17933 ft 352 kts 93°
2026-05-06 01:26 42.13443 -83.11858 18485 ft 357 kts 93°
2026-05-06 01:27 42.13515 -83.08492 19051 ft 361 kts 93°
2026-05-06 01:27 42.13586 -83.05102 19638 ft 364 kts 93°
2026-05-06 01:27 42.13657 -83.01677 20206 ft 367 kts 93°
2026-05-06 01:27 42.13727 -82.98218 20767 ft 371 kts 93°
2026-05-06 01:28 42.13797 -82.94717 21320 ft 376 kts 93°
2026-05-06 01:28 42.13867 -82.91181 21877 ft 380 kts 92°
2026-05-06 01:28 42.13936 -82.87603 22441 ft 384 kts 92°
2026-05-06 01:28 42.14005 -82.83985 23008 ft 388 kts 92°
2026-05-06 01:29 42.14074 -82.80335 23545 ft 392 kts 92°
2026-05-06 01:29 42.14142 -82.76641 24003 ft 396 kts 92°
2026-05-06 01:29 42.14211 -82.72927 24491 ft 399 kts 92°
2026-05-06 01:29 42.14279 -82.69174 24957 ft 403 kts 92°
2026-05-06 01:30 42.14344 -82.65426 25387 ft 408 kts 92°
2026-05-06 01:30 42.14405 -82.61581 25816 ft 412 kts 92°
2026-05-06 01:30 42.14401 -82.57694 26254 ft 417 kts 94°
2026-05-06 01:30 42.14364 -82.53769 26692 ft 421 kts 94°
2026-05-06 01:31 42.14330 -82.49805 27145 ft 426 kts 93°
2026-05-06 01:31 42.14301 -82.45789 27588 ft 431 kts 94°
2026-05-06 01:31 42.14170 -82.41747 28014 ft 434 kts 97°
2026-05-06 01:31 42.13955 -82.37675 28483 ft 437 kts 97°
2026-05-06 01:32 42.13715 -82.33589 29004 ft 439 kts 98°
2026-05-06 01:32 42.13466 -82.29462 29443 ft 444 kts 97°
2026-05-06 01:32 42.13218 -82.25294 29862 ft 449 kts 97°
2026-05-06 01:32 42.13051 -82.22449 30110 ft 452 kts 97°
2026-05-06 01:33 42.12805 -82.18204 30438 ft 457 kts 97°
2026-05-06 01:33 42.12562 -82.13973 30758 ft 462 kts 97°
2026-05-06 01:33 42.12313 -82.09628 31089 ft 467 kts 96°
2026-05-06 01:33 42.12061 -82.05242 31411 ft 472 kts 96°
2026-05-06 01:34 42.11805 -82.00820 31727 ft 477 kts 96°
2026-05-06 01:34 42.11543 -81.96338 32041 ft 481 kts 96°
2026-05-06 01:34 42.11278 -81.91814 32348 ft 486 kts 96°
2026-05-06 01:34 42.11008 -81.87254 32649 ft 490 kts 96°
2026-05-06 01:35 42.10732 -81.82638 32821 ft 499 kts 96°
2026-05-06 01:35 42.10449 -81.77930 32891 ft 509 kts 96°
2026-05-06 01:35 42.10161 -81.73168 33172 ft 510 kts 95°
2026-05-06 01:35 42.09876 -81.68472 33592 ft 508 kts 95°
2026-05-06 01:36 42.09582 -81.63663 33894 ft 510 kts 95°
2026-05-06 01:36 42.09292 -81.58960 34136 ft 512 kts 95°
2026-05-06 01:36 42.09028 -81.54162 34359 ft 515 kts 93°
2026-05-06 01:36 42.08802 -81.49332 34578 ft 518 kts 93°
2026-05-06 01:37 42.08593 -81.44487 34791 ft 521 kts 92°
2026-05-06 01:37 42.08385 -81.39597 34870 ft 525 kts 92°
2026-05-06 01:37 42.07948 -81.29706 34906 ft 536 kts 93°
2026-05-06 01:38 42.07472 -81.19555 34913 ft 551 kts 93°
2026-05-06 01:38 42.06965 -81.09133 34915 ft 565 kts 93°
2026-05-06 01:39 42.06434 -80.98443 34908 ft 578 kts 93°
2026-05-06 01:39 42.05893 -80.87722 34884 ft 576 kts 94°
2026-05-06 01:40 42.05347 -80.77095 34865 ft 564 kts 94°
2026-05-06 01:40 42.04798 -80.66564 34876 ft 564 kts 94°
2026-05-06 01:41 42.04176 -80.54879 34888 ft 566 kts 94°
2026-05-06 01:41 42.03605 -80.44325 34890 ft 566 kts 94°
2026-05-06 01:42 42.03022 -80.33759 34882 ft 567 kts 94°
2026-05-06 01:42 42.02430 -80.23185 34879 ft 567 kts 94°
2026-05-06 01:43 42.01832 -80.12690 34874 ft 565 kts 94°
2026-05-06 01:43 42.01223 -80.02170 34876 ft 563 kts 94°
2026-05-06 01:44 42.00607 -79.91696 34877 ft 561 kts 94°
2026-05-06 01:44 41.99984 -79.81261 34881 ft 559 kts 94°
2026-05-06 01:45 41.99352 -79.70849 34876 ft 557 kts 94°
2026-05-06 01:45 41.98715 -79.60501 34871 ft 554 kts 94°
2026-05-06 01:46 41.98071 -79.50191 34882 ft 553 kts 94°
2026-05-06 01:46 41.97420 -79.39903 34883 ft 552 kts 95°
2026-05-06 01:47 41.96760 -79.29630 34888 ft 551 kts 95°
2026-05-06 01:47 41.96092 -79.19392 34883 ft 550 kts 95°
2026-05-06 01:48 41.95416 -79.09158 34888 ft 549 kts 95°
2026-05-06 01:48 41.94848 -79.00663 34883 ft 549 kts 95°
2026-05-06 01:49 41.94157 -78.90468 34883 ft 547 kts 95°
2026-05-06 01:49 41.93344 -78.78642 34866 ft 547 kts 95°
2026-05-06 01:50 41.92752 -78.70121 34873 ft 546 kts 95°
2026-05-06 01:50 41.92043 -78.60050 34876 ft 545 kts 95°
2026-05-06 01:51 41.91321 -78.49933 34868 ft 543 kts 95°
2026-05-06 01:51 41.90594 -78.39850 34874 ft 542 kts 95°
2026-05-06 01:52 41.89859 -78.29790 34873 ft 541 kts 96°
2026-05-06 01:52 41.89115 -78.19739 34863 ft 541 kts 96°
2026-05-06 01:53 41.88363 -78.09697 34878 ft 541 kts 96°
2026-05-06 01:53 41.87605 -77.99653 34883 ft 541 kts 96°
2026-05-06 01:54 41.86815 -77.89614 34868 ft 541 kts 98°
2026-05-06 01:54 41.85190 -77.79795 34846 ft 539 kts 111°
2026-05-06 01:55 41.82630 -77.70360 34845 ft 538 kts 112°
2026-05-06 01:55 41.80112 -77.60980 34837 ft 539 kts 111°
2026-05-06 01:56 41.77624 -77.51517 34839 ft 538 kts 111°
2026-05-06 01:56 41.75105 -77.42086 34831 ft 538 kts 111°
2026-05-06 01:57 41.72576 -77.32670 34824 ft 536 kts 111°
2026-05-06 01:57 41.70053 -77.23281 34833 ft 536 kts 111°
2026-05-06 01:58 41.67528 -77.13925 34834 ft 533 kts 111°
2026-05-06 01:58 41.65003 -77.04599 34827 ft 533 kts 111°
2026-05-06 01:59 41.62475 -76.95292 34830 ft 533 kts 111°
2026-05-06 01:59 41.59937 -76.85976 34802 ft 533 kts 111°
2026-05-06 02:00 41.57400 -76.76699 34820 ft 531 kts 111°
2026-05-06 02:00 41.54865 -76.67463 34825 ft 529 kts 111°
2026-05-06 02:01 41.52331 -76.58260 34828 ft 528 kts 112°
2026-05-06 02:01 41.49810 -76.49132 34484 ft 527 kts 112°
2026-05-06 02:02 41.48532 -76.44506 34032 ft 523 kts 112°
2026-05-06 02:02 41.47281 -76.39983 33532 ft 517 kts 112°
2026-05-06 02:02 41.46041 -76.35511 33008 ft 512 kts 113°
2026-05-06 02:02 41.44827 -76.31141 32546 ft 506 kts 113°
2026-05-06 02:03 41.43595 -76.26713 32070 ft 501 kts 113°
2026-05-06 02:03 41.42385 -76.22374 31601 ft 497 kts 113°
2026-05-06 02:03 41.41201 -76.18138 31155 ft 492 kts 114°
2026-05-06 02:03 41.40012 -76.13887 30694 ft 488 kts 114°
2026-05-06 02:04 41.38830 -76.09671 30248 ft 484 kts 114°
2026-05-06 02:04 41.37654 -76.05485 29770 ft 480 kts 114°
2026-05-06 02:04 41.36490 -76.01344 29267 ft 476 kts 114°
2026-05-06 02:04 41.35332 -75.97232 28789 ft 471 kts 114°
2026-05-06 02:05 41.34187 -75.93173 28369 ft 467 kts 114°
2026-05-06 02:05 41.33047 -75.89138 27920 ft 463 kts 115°
2026-05-06 02:05 41.31919 -75.85156 27464 ft 458 kts 115°
2026-05-06 02:05 41.30800 -75.81206 27041 ft 454 kts 115°
2026-05-06 02:06 41.29693 -75.77305 26597 ft 450 kts 115°
2026-05-06 02:06 41.28590 -75.73424 26167 ft 446 kts 115°
2026-05-06 02:06 41.27495 -75.69583 25750 ft 443 kts 116°
2026-05-06 02:06 41.26321 -75.65827 25324 ft 437 kts 119°
2026-05-06 02:07 41.25093 -75.62150 24913 ft 434 kts 120°
2026-05-06 02:07 41.23856 -75.58507 24495 ft 431 kts 120°
2026-05-06 02:07 41.22626 -75.54886 24103 ft 428 kts 120°
2026-05-06 02:07 41.21407 -75.51285 23699 ft 426 kts 120°
2026-05-06 02:08 41.20196 -75.47693 23247 ft 424 kts 120°
2026-05-06 02:08 41.18997 -75.44130 22789 ft 421 kts 120°
2026-05-06 02:08 41.17808 -75.40596 22338 ft 418 kts 120°
2026-05-06 02:08 41.16627 -75.37090 21950 ft 414 kts 120°
2026-05-06 02:09 41.15455 -75.33618 21538 ft 411 kts 120°
2026-05-06 02:09 41.14291 -75.30173 21144 ft 408 kts 120°
2026-05-06 02:09 41.13136 -75.26754 20736 ft 405 kts 120°
2026-05-06 02:09 41.12003 -75.23401 20347 ft 402 kts 120°
2026-05-06 02:10 41.10862 -75.20028 19936 ft 399 kts 120°
2026-05-06 02:10 41.09727 -75.16676 19550 ft 398 kts 120°
2026-05-06 02:10 41.08597 -75.13342 19151 ft 396 kts 120°
2026-05-06 02:10 41.07469 -75.10019 18751 ft 394 kts 120°
2026-05-06 02:11 41.06343 -75.06710 18355 ft 393 kts 119°
2026-05-06 02:11 41.05218 -75.03410 17877 ft 392 kts 119°
2026-05-06 02:11 41.04097 -75.00119 17453 ft 390 kts 119°
2026-05-06 02:11 41.02984 -74.96855 17029 ft 388 kts 119°
2026-05-06 02:12 41.01876 -74.93609 16643 ft 385 kts 118°
2026-05-06 02:12 41.00773 -74.90383 16241 ft 384 kts 118°
2026-05-06 02:12 40.99817 -74.87080 15865 ft 385 kts 111°
2026-05-06 02:12 40.99166 -74.83699 15557 ft 384 kts 103°
2026-05-06 02:13 40.98748 -74.80222 15188 ft 382 kts 101°
2026-05-06 02:13 40.98357 -74.76746 14813 ft 381 kts 101°
2026-05-06 02:13 40.97968 -74.73281 14441 ft 380 kts 101°
2026-05-06 02:13 40.97576 -74.69829 14065 ft 379 kts 101°
2026-05-06 02:14 40.97180 -74.66381 13674 ft 379 kts 101°
2026-05-06 02:14 40.96779 -74.62936 13259 ft 378 kts 101°
2026-05-06 02:14 40.96376 -74.59500 12869 ft 377 kts 101°
2026-05-06 02:14 40.95972 -74.56077 12492 ft 376 kts 101°
2026-05-06 02:15 40.95568 -74.52666 12103 ft 375 kts 102°
2026-05-06 02:15 40.95163 -74.49262 11734 ft 373 kts 102°
2026-05-06 02:15 40.94758 -74.45870 11359 ft 372 kts 102°
2026-05-06 02:15 40.94354 -74.42492 10991 ft 371 kts 102°
2026-05-06 02:16 40.93951 -74.39124 10625 ft 370 kts 102°
2026-05-06 02:16 40.93555 -74.35827 10446 ft 364 kts 102°
2026-05-06 02:16 40.93162 -74.32556 10275 ft 356 kts 102°
2026-05-06 02:16 40.92777 -74.29365 10129 ft 348 kts 102°
2026-05-06 02:17 40.92399 -74.26239 9972 ft 341 kts 102°
2026-05-06 02:17 40.92025 -74.23159 9775 ft 336 kts 102°
2026-05-06 02:17 40.91659 -74.20138 9569 ft 329 kts 102°
2026-05-06 02:17 40.91303 -74.17208 9465 ft 316 kts 102°
2026-05-06 02:18 40.90958 -74.14381 9241 ft 304 kts 102°
2026-05-06 02:18 40.90514 -74.11715 8582 ft 291 kts 118°
2026-05-06 02:18 40.89502 -74.09498 8034 ft 271 kts 131°
2026-05-06 02:18 40.88455 -74.07460 7789 ft 272 kts 130°
2026-05-06 02:19 40.87380 -74.05309 7539 ft 287 kts 129°
2026-05-06 02:19 40.86280 -74.03079 7197 ft 291 kts 129°
2026-05-06 02:19 40.85184 -74.00840 6894 ft 288 kts 129°
2026-05-06 02:19 40.84105 -73.98630 6567 ft 284 kts 129°
2026-05-06 02:20 40.81984 -73.94293 5961 ft 280 kts 129°
2026-05-06 02:20 40.80927 -73.92139 5672 ft 281 kts 130°
2026-05-06 02:20 40.79879 -73.90004 5377 ft 280 kts 130°
2026-05-06 02:21 40.78828 -73.87861 5089 ft 277 kts 130°
2026-05-06 02:21 40.77854 -73.85677 4789 ft 278 kts 117°
2026-05-06 02:21 40.77552 -73.83131 4517 ft 289 kts 88°
2026-05-06 02:21 40.78154 -73.80575 4226 ft 298 kts 59°
2026-05-06 02:22 40.79511 -73.78509 3911 ft 299 kts 39°
2026-05-06 02:22 40.81148 -73.76837 3689 ft 295 kts 24°
2026-05-06 02:22 40.82995 -73.75844 3709 ft 283 kts 12°
2026-05-06 02:22 40.84894 -73.75067 3730 ft 289 kts 11°
2026-05-06 02:23 40.86831 -73.74305 3745 ft 292 kts 11°
2026-05-06 02:23 40.88785 -73.73552 3739 ft 292 kts 10°
2026-05-06 02:23 40.90731 -73.72812 3737 ft 289 kts 11°
2026-05-06 02:23 40.92552 -73.71701 3718 ft 295 kts 36°
2026-05-06 02:24 40.93887 -73.69629 3724 ft 301 kts 65°
2026-05-06 02:24 40.94430 -73.67006 3718 ft 293 kts 94°
2026-05-06 02:24 40.94085 -73.64443 3710 ft 277 kts 123°
2026-05-06 02:24 40.92984 -73.62506 3709 ft 255 kts 153°
2026-05-06 02:25 40.91458 -73.61568 3711 ft 235 kts 176°
2026-05-06 02:25 40.89862 -73.61224 3716 ft 230 kts 184°
2026-05-06 02:25 40.88278 -73.61234 3721 ft 227 kts 191°
2026-05-06 02:25 40.86692 -73.61400 3719 ft 230 kts 192°
2026-05-06 02:26 40.85124 -73.61692 3711 ft 222 kts 204°
2026-05-06 02:26 40.83710 -73.62476 3724 ft 219 kts 210°
2026-05-06 02:26 40.82336 -73.63355 3694 ft 219 kts 210°
2026-05-06 02:26 40.80997 -73.64203 3537 ft 210 kts 209°
2026-05-06 02:27 40.79710 -73.64996 3310 ft 198 kts 210°
2026-05-06 02:27 40.78522 -73.65710 3070 ft 178 kts 209°
2026-05-06 02:27 40.77462 -73.66340 2860 ft 156 kts 209°
2026-05-06 02:27 40.76530 -73.66890 2675 ft 137 kts 210°
2026-05-06 02:28 40.75667 -73.67401 2503 ft 138 kts 210°
2026-05-06 02:28 40.74793 -73.67918 2365 ft 138 kts 209°
2026-05-06 02:28 40.73936 -73.68421 2175 ft 130 kts 209°
2026-05-06 02:28 40.73137 -73.68889 2027 ft 123 kts 209°
2026-05-06 02:29 40.72366 -73.69385 1856 ft 124 kts 211°
2026-05-06 02:29 40.71612 -73.69939 1684 ft 123 kts 212°
2026-05-06 02:29 40.70874 -73.70508 1527 ft 124 kts 211°
2026-05-06 02:29 40.70110 -73.71107 1356 ft 133 kts 211°
2026-05-06 02:30 40.69308 -73.71733 1267 ft 130 kts 212°
2026-05-06 02:30 40.68516 -73.72357 1031 ft 137 kts 211°
2026-05-06 02:30 40.67659 -73.73027 819 ft 147 kts 210°
2026-05-06 02:30 40.66762 -73.73734 604 ft 151 kts 208°
2026-05-06 02:31 40.65879 -73.74403 416 ft 142 kts 206°
2026-05-06 02:31 40.65053 -73.75053 173 ft 136 kts 210°
2026-05-06 02:31 40.64303 -73.75646 40 ft 115 kts 207°
2026-05-06 02:31 40.63741 -73.76091 31 ft 76 kts 212°
2026-05-06 02:32 40.63369 -73.76388 27 ft 45 kts 214°
2026-05-06 02:32 40.63248 -73.76612 29 ft 25 kts 247°
2026-05-06 02:32 40.63280 -73.76825 27 ft 25 kts 299°
2026-05-06 02:32 40.63414 -73.76936 27 ft 25 kts
2026-05-06 02:33 40.63585 -73.76921 27 ft 25 kts
2026-05-06 02:33 40.63699 -73.76919 30 ft 25 kts 360°
2026-05-06 02:33 40.64087 -73.76904 28 ft 15 kts
2026-05-06 02:34 40.64134 -73.76898 28 ft 0 kts
2026-05-06 02:34 40.64141 -73.76897 28 ft 2 kts
2026-05-06 02:34 40.64199 -73.76890 28 ft 20 kts
2026-05-06 02:34 40.64345 -73.76926 30 ft 27 kts 332°
2026-05-06 02:35 40.64523 -73.76991 27 ft 23 kts
2026-05-06 02:35 40.64648 -73.76994 27 ft 18 kts 348°
2026-05-06 02:35 40.64757 -73.77066 27 ft 18 kts 315°
2026-05-06 02:35 40.64817 -73.77204 31 ft 18 kts 298°
2026-05-06 02:36 40.64880 -73.77340 31 ft 17 kts 303°
2026-05-06 02:36 40.64944 -73.77474 26 ft 17 kts 302°
2026-05-06 02:36 40.65006 -73.77609 27 ft 17 kts 301°
2026-05-06 02:36 40.65068 -73.77745 28 ft 17 kts 301°
2026-05-06 02:37 40.65154 -73.77943 27 ft 29 kts 299°
2026-05-06 02:37 40.65244 -73.78143 30 ft 20 kts 300°
2026-05-06 02:37 40.65310 -73.78285 31 ft 14 kts 301°
2026-05-06 02:37 40.65339 -73.78348 30 ft 8 kts 302°
2026-05-06 02:38 40.65354 -73.78418 28 ft 10 kts 272°
2026-05-06 02:38 40.65423 -73.78553 29 ft 29 kts 314°
2026-05-06 02:38 40.65537 -73.78783 29 ft 30 kts 300°
2026-05-06 02:38 40.65635 -73.79003 29 ft 22 kts 300°
2026-05-06 02:39 40.65714 -73.79055 26 ft 16 kts 20°
2026-05-06 02:39 40.65840 -73.78933 29 ft 24 kts 67°
2026-05-06 02:39 40.65912 -73.78752 30 ft 24 kts 29°
2026-05-06 02:39 40.66018 -73.78645 32 ft 19 kts 81°
2026-05-06 02:40 40.66053 -73.78505 32 ft 13 kts 40°
2026-05-06 02:40 40.66092 -73.78473 30 ft 0 kts 31°